Regional Weather Roundup
Issued by NWS Albany, NY

Home | Current Version | Previous Version | Text Only | Print | Product List | Glossary On
Versions: 1 2 3 4 5 6 7 8 9 10 11 12 13 14 15 16 17 18 19 20 21 22 23 24 25 26 27 28 29 30 31 32 33 34 35 36 37 38 39 40 41 42 43 44 45 46 47 48 49 50
000
ASUS41 KALY 220810
RWRALY

NEW YORK STATE HOURLY WEATHER ROUNDUP
NATIONAL WEATHER SERVICE ALBANY NY
400 AM EDT TUE MAY 22 2018

NOTE: "FAIR" INDICATES FEW OR NO CLOUDS BELOW 12,000 FEET WITH NO
SIGNIFICANT WEATHER AND/OR NO OBSTRUCTIONS TO VISIBILITY.

NYZ032-033-038>043-046>054-057>066-NYZ062>081-082-084-220900-
EAST


CITY           SKY/WX    TMP DP  RH WIND       PRES   REMARKS
ALBANY         CLOUDY    58  48  69 CALM      30.15R
GLENS FALLS    FAIR      52  50  93 N3        30.14F
POUGHKEEPSIE   FAIR      55  51  86 CALM      30.14S
NEWBURGH       CLEAR     59  54  82 CALM      30.16R
MONTGOMERY     FAIR      54  53  97 CALM      30.14S
WHITE PLAINS   FAIR      56  52  86 CALM      30.16R
ISLIP          FAIR      54  51  90 CALM      30.16S
NEW YORK CITY  CLOUDY    65  46  50 S5        30.15F
CENTRAL PARK   FAIR      65  47  52 CALM      30.18F
$$

NYZ005>009-017-018-044>046-055-056-220900-
CENTRAL


CITY           SKY/WX    TMP DP  RH WIND       PRES   REMARKS
FULTON         MOCLDY    58  46  64 S5        30.10F
SYRACUSE       CLOUDY    56  52  86 E5        30.09F
ROME           FAIR      54  49  83 SE3       30.14F
ELMIRA         CLOUDY    58  51  78 CALM      30.10S
BINGHAMTON     FAIR      56  47  71 SE3       30.12F
$$

NYZ026>034-041>043-087-220900-
NORTH


CITY           SKY/WX    TMP DP  RH WIND       PRES   REMARKS
WATERTOWN      FAIR      56  46  69 CALM      30.08F
FORT DRUM      NOT AVBL
OGDENSBURG     FAIR      56  45  65 S3        30.10F
MASSENA        FAIR      54  48  80 CALM      30.11F
SARANAC LAKE   FAIR      44  42  93 CALM      30.16F
PLATTSBURGH    FAIR      54  46  74 CALM      30.12S
$$

NYZ001>004-010>016-019>021-085-220900-
WEST


CITY           SKY/WX    TMP DP  RH WIND       PRES   REMARKS
NIAGARA FALLS  LGT RAIN  62  53  72 E5        30.01F
BUFFALO        LGT RAIN  59  53  80 SE12G20   30.01F
DUNKIRK        CLOUDY    62  58  86 S8        30.00F
JAMESTOWN      LGT RAIN  56  55  97 S6        30.05F
WELLSVILLE     RAIN      53  52  96 S10G17    30.12F FOG
ROCHESTER      CLOUDY    61  52  72 CALM      30.06F
PENN YAN       CLOUDY    57  48  72 S3        30.09F
$$

             KEY
       WCI = WIND CHILL INDEX
       VSB = VISIBILITY
       HX  = HEAT INDEX
$$



USA.gov is the U.S. government's official web portal to all federal, state and local government web resources and services.